Location: Pcim
(49.7500°N, 19.9670°E)
Time: 19:44:34
(UTC+02:00)

MOZHAYETS 4 - Pass Details

Date: 28 April 2024
Orbit: 652 x 670 km, 98.3° (Epoch: 20 May)

Event Time Altitude Azimuth Distance (km) Brightness Sun altitude
Rises 04:28:12 0° 186° (S) 3,006 10.7 -8.4°
Reaches altitude 10° 04:30:33 10° 195° (SSW) 2,098 9.8 -8.1°
Maximum altitude 04:34:49 37° 263° (W) 1,041 8.3 -7.6°
Drops below altitude 10° 04:39:06 10° 331° (NNW) 2,111 10.3 -7.0°
Sets 04:41:29 0° 340° (NNW) 3,027 11.2 -6.6°
